Regional Weather Roundup
Issued by NWS

Home | Current Version | Previous Version | Graphics & Text | Print | Product List | Glossary On
Versions: 1 2 3 4 5 6 7 8 9 10 11 12 13 14 15 16 17 18 19 20 21 22 23 24 25 26 27 28
000
ASUS45 KPSR 210210
RWRAZ

ARIZONA HOURLY REGIONAL WEATHER ROUNDUP
NATIONAL WEATHER SERVICE PHOENIX AZ
700 PM MST FRI APR 20 2018

NOTE: FAIR INDICATES FEW OR NO CLOUDS BELOW 12,000 FEET WITH NO
SIGNIFICANT WEATHER AND/OR OBSTRUCTIONS TO VISIBILITY.

AZZ001>003-036-210300-
NORTHWEST ARIZONA

CITY           SKY/WX    TMP DP  RH WIND       PRES   REMARKS
BULLHEAD CITY  CLEAR     84  23  10 W7G13     29.89S
KINGMAN        CLEAR     68  27  21 N15       30.04R
$$

AZZ004>008-015-016-018-210300-
NORTH CENTRAL ARIZONA

CITY           SKY/WX    TMP DP  RH WIND       PRES   REMARKS
GRAND CANYON   CLEAR     42  33  70 CALM      30.14R
WILLIAMS       CLEAR     43  28  56 N10       30.12R
PRESCOTT       CLEAR     58  23  26 N17G24    30.07R
FLAGSTAFF      CLEAR     39  29  67 N6        30.13R WCI  35
PAYSON         CLOUDY    48  34  57 NE7       30.11R
PAGE           PTCLDY    53  35  50 SE3       30.05S
$$

AZZ009>014-017-210300-
NORTHEAST ARIZONA

CITY           SKY/WX    TMP DP  RH WIND       PRES   REMARKS
WINSLOW        CLEAR     44  37  76 NW7       30.11R
SAINT JOHNS    CLOUDY    40  38  93 W20G29    30.10S WCI  30
WINDOW ROCK    MOCLDY    40  34  79 W6        30.06R
SHOW LOW       LGT SNOW  34  34 100 W10       30.17R WCI  26
$$

AZZ540-542>544-546-548-210300-
GREATER PHOENIX AREA

CITY           SKY/WX    TMP DP  RH WIND       PRES   REMARKS
PHOENIX        PTCLDY    75  29  18 SW14      29.94R
BUCKEYE        CLEAR     75  27  16 W8        29.96R
GLENDALE       PTCLDY    75  30  19 S12G18    29.96R
LUKE AFB       PTCLDY    76  29  18 SW10      29.93R
DEER VALLEY    PTCLDY    74  28  18 W12       29.95R
SCOTTSDALE     MOCLDY    75  31  19 W7        29.97R
MESA-FALCON    PTCLDY    73  30  20 SW7       29.97R
MESA-GATEWAY   PTCLDY    73  28  19 SW10      29.99R
CHANDLER       CLEAR     75  27  16 W7        29.96R
$$

AZZ539-553-210300-
SOUTHWEST MARICOPA COUNTY AND PINAL COUNTY

CITY           SKY/WX    TMP DP  RH WIND       PRES   REMARKS
CASA GRANDE    CLEAR     73  27  18 SW7       29.99R
GILA BEND      CLEAR     78  25  14 SW8       29.95R
$$

AZZ503-504-507>509-210300-
SOUTHEAST ARIZONA

CITY           SKY/WX    TMP DP  RH WIND       PRES   REMARKS
TUCSON         CLEAR     70  22  16 MISG      30.03R
DAVIS-MONTHAN  CLEAR     69  23  18 NW10      30.01R
NOGALES        CLEAR     65  16  15 NW8       30.06R
SIERRA VISTA   CLEAR     60  15  17 NW12      30.08R
DOUGLAS        CLEAR     62  16  16 N16       30.04R
SAFFORD        CLEAR     64  22  20 NW18G28   29.98R
$$

AZZ532-210300-
SOUTHWEST ARIZONA

CITY           SKY/WX    TMP DP  RH WIND       PRES   REMARKS
YUMA           CLEAR     79  35  20 W6        29.96R
$$

CAZ041-043-047-048-061-525>527-560>570-210300-
SOUTHERN CALIFORNIA

CITY           SKY/WX    TMP DP  RH WIND       PRES   REMARKS
DOWNTOWN L.A.  CLEAR     62  52  69 VRB5      30.05S
L.A. AIRPORT   CLEAR     60  51  72 W13       30.07R
SAN DIEGO      PTCLDY    63  53  70 W10       30.11R
BURBANK        CLEAR     68  52  56 SE8       30.05R
ONTARIO        CLEAR     67  41  38 SW14      30.05R
RIVERSIDE      CLEAR     67  43  41 W10       30.07R
PALM SPRINGS   CLEAR     84  35  17 NW18G26   29.94S
EL CENTRO NAS  CLEAR     83  22  10 SW7       29.94S
IMPERIAL       CLEAR     82  31  15 S6        29.92F
BLYTHE         CLEAR     84  22  10 NW9       29.91S
NEEDLES        CLEAR     84  26  12 W6        29.92S
$$

NVZ020-UTZ003-210300-
SOUTHERN NEVADA-UTAH

CITY           SKY/WX    TMP DP  RH WIND       PRES   REMARKS
LAS VEGAS      CLEAR     78  28  16 E6        29.96R
SALT LAKE CITY PTCLDY    61  33  35 NW6       30.02R
$$

NMZ009-TXZ055-210300-
NEW MEXICO-WEST TEXAS

CITY           SKY/WX    TMP DP  RH WIND       PRES   REMARKS
ALBUQUERQUE    MOCLDY    56  19  23 W18       29.97R
EL PASO        CLEAR     69   7   9 NW20      29.90R
$$


........................KEY........................
SKY/WX - SKY CONDITION/WEATHER
TMP    - TEMPERATURE IN FAHRENHEIT
DP     - DEW POINT IN FAHRENHEIT
RH     - RELATIVE HUMIDITY IN PERCENT
WIND   - DIRECTION AND SPEED IN MILES PER HOUR (MPH)
VRB    - VARIABLE WIND DIRECTION
PRES   - MEAN SEA LEVEL PRESSURE IN INCHES OF MERCURY
         F - FALLING PRESSURE   R - RISING PRESSURE
         S - STEADY PRESSURE
VSB    - VISIBILITY IN MILES
HX     - HEAT INDEX IN FAHRENHEIT
WCI    - WIND CHILL INDEX IN FAHRENHEIT
TC     - TEMPERATURE IN CELSIUS WHICH IS ALSO KNOWN AS
         TEMPERATURE IN CENTIGRADE
AFB    - AIR FORCE BASE
         LUKE AFB IS LUKE AIR FORCE BASE
         DAVIS-MONTHAN IS DAVIS-MONTHAN AIR FORCE BASE
NAS    - NAVAL AIR STATION
         EL CENTRO NAS IS EL CENTRO NAVAL AIR STATION
N/A    - NOT AVAILABLE





USA.gov is the U.S. government's official web portal to all federal, state and local government web resources and services.